LAN160 SCEL-SAME

Flight info

Callsign LAN160
Flight time 0h 35m
Altitude 25000
Route ALBAL7C ALBAL UT652 ESITO ESITO2Q
Aircraft A320/M-SDE3FGHIRWY/LB1

Departure

Time 2026-04-21 19:12
Airport Comodoro Arturo Merino Benítez International Airport (SCEL)

Arrival

Time 2026-04-21 19:47
Airport Governor Francisco Gabrielli International Airport (SAME)
Time Latitude Longitude Altitude Speed Heading
2026-04-21 18:45 -33.39593 -70.79219 1564 ft 0 kts 176°
2026-04-21 18:58 -33.39573 -70.79219 1564 ft 4 kts 180°
2026-04-21 18:59 -33.39546 -70.79218 1564 ft 4 kts 187°
2026-04-21 18:59 -33.39520 -70.79211 1564 ft 4 kts 205°
2026-04-21 18:59 -33.39502 -70.79194 1564 ft 3 kts 258°
2026-04-21 18:59 -33.39500 -70.79184 1564 ft 0 kts 267°
2026-04-21 19:01 -33.39502 -70.79213 1564 ft 9 kts 267°
2026-04-21 19:01 -33.39507 -70.79340 1564 ft 21 kts 267°
2026-04-21 19:01 -33.39518 -70.79558 1564 ft 31 kts 266°
2026-04-21 19:01 -33.39529 -70.79764 1565 ft 23 kts 269°
2026-04-21 19:02 -33.39513 -70.79919 1565 ft 14 kts 295°
2026-04-21 19:02 -33.39392 -70.79954 1565 ft 24 kts 360°
2026-04-21 19:02 -33.39300 -70.80032 1566 ft 21 kts 316°
2026-04-21 19:02 -33.39132 -70.80065 1566 ft 30 kts 356°
2026-04-21 19:03 -33.38886 -70.80080 1567 ft 39 kts 358°
2026-04-21 19:03 -33.38598 -70.80090 1567 ft 44 kts 359°
2026-04-21 19:03 -33.38278 -70.80114 1566 ft 48 kts 357°
2026-04-21 19:03 -33.37930 -70.80127 1566 ft 52 kts 358°
2026-04-21 19:04 -33.37557 -70.80142 1566 ft 55 kts 358°
2026-04-21 19:04 -33.37265 -70.80177 1567 ft 35 kts
2026-04-21 19:04 -33.37115 -70.80228 1568 ft 0 kts 285°
2026-04-21 19:04 -33.37114 -70.80234 1569 ft 2 kts 284°
2026-04-21 19:05 -33.37113 -70.80237 1569 ft 0 kts 284°
2026-04-21 19:09 -33.37110 -70.80251 1569 ft 4 kts 283°
2026-04-21 19:10 -33.37110 -70.80301 1573 ft 7 kts 258°
2026-04-21 19:10 -33.37149 -70.80365 1574 ft 13 kts 210°
2026-04-21 19:10 -33.37218 -70.80372 1573 ft 2 kts 174°
2026-04-21 19:10 -33.37222 -70.80372 1573 ft 0 kts 176°
2026-04-21 19:11 -33.37223 -70.80372 1573 ft 1 kts 176°
2026-04-21 19:11 -33.37367 -70.80364 1574 ft 56 kts 177°
2026-04-21 19:11 -33.37993 -70.80329 1572 ft 121 kts 177°
2026-04-21 19:12 -33.39008 -70.80271 1574 ft 169 kts 177°
2026-04-21 19:12 -33.40277 -70.80185 1895 ft 184 kts 175°
2026-04-21 19:12 -33.41538 -70.80119 2738 ft 181 kts 178°
2026-04-21 19:12 -33.42841 -70.80052 3255 ft 198 kts 178°
2026-04-21 19:13 -33.44299 -70.79978 3657 ft 222 kts 178°
2026-04-21 19:13 -33.45923 -70.79895 4114 ft 246 kts 178°
2026-04-21 19:13 -33.47716 -70.79802 4618 ft 266 kts 178°
2026-04-21 19:13 -33.49580 -70.79705 5375 ft 277 kts 178°
2026-04-21 19:14 -33.51561 -70.79597 6223 ft 285 kts 178°
2026-04-21 19:14 -33.53568 -70.79479 7032 ft 293 kts 177°
2026-04-21 19:14 -33.55621 -70.79286 7862 ft 299 kts 175°
2026-04-21 19:14 -33.57709 -70.79034 8716 ft 304 kts 175°
2026-04-21 19:15 -33.59833 -70.78756 9537 ft 310 kts 175°
2026-04-21 19:15 -33.62004 -70.78468 10287 ft 319 kts 175°
2026-04-21 19:15 -33.64167 -70.78190 11177 ft 312 kts 175°
2026-04-21 19:15 -33.66394 -70.77913 11754 ft 328 kts 176°
2026-04-21 19:16 -33.68746 -70.77626 12023 ft 351 kts 176°
2026-04-21 19:16 -33.71229 -70.77327 12549 ft 364 kts 176°
2026-04-21 19:16 -33.73730 -70.77023 13296 ft 368 kts 176°
2026-04-21 19:16 -33.76294 -70.76710 14035 ft 373 kts 175°
2026-04-21 19:17 -33.81231 -70.74660 15370 ft 384 kts 148°
2026-04-21 19:17 -33.83297 -70.72613 16035 ft 388 kts 133°
2026-04-21 19:17 -33.84908 -70.70010 16689 ft 391 kts 118°
2026-04-21 19:18 -33.86089 -70.67050 17325 ft 395 kts 114°
2026-04-21 19:18 -33.87240 -70.64026 17965 ft 399 kts 114°
2026-04-21 19:18 -33.88403 -70.60974 18570 ft 404 kts 115°
2026-04-21 19:18 -33.89579 -70.57886 19116 ft 408 kts 115°
2026-04-21 19:19 -33.90769 -70.54764 19644 ft 413 kts 115°
2026-04-21 19:19 -33.91975 -70.51604 20124 ft 417 kts 115°
2026-04-21 19:19 -33.93193 -70.48414 20663 ft 422 kts 115°
2026-04-21 19:19 -33.94419 -70.45195 21196 ft 426 kts 116°
2026-04-21 19:20 -33.95661 -70.41931 21749 ft 428 kts 116°
2026-04-21 19:20 -33.96876 -70.38728 22789 ft 409 kts 116°
2026-04-21 19:20 -33.98027 -70.35686 23964 ft 389 kts 112°
2026-04-21 19:20 -33.99023 -70.32863 25527 ft 341 kts 109°
2026-04-21 19:21 -33.99864 -70.30212 26112 ft 346 kts 107°
2026-04-21 19:21 -34.00658 -70.27351 25896 ft 370 kts 102°
2026-04-21 19:21 -34.01352 -70.24309 26014 ft 379 kts 99°
2026-04-21 19:21 -34.02022 -70.21222 26405 ft 381 kts 108°
2026-04-21 19:22 -34.02894 -70.18215 26804 ft 379 kts 115°
2026-04-21 19:22 -34.03895 -70.15346 27506 ft 365 kts 109°
2026-04-21 19:22 -34.04183 -70.12493 29091 ft 313 kts 82°
2026-04-21 19:22 -34.03885 -70.10040 30195 ft 290 kts 78°
2026-04-21 19:23 -34.03562 -70.07551 30098 ft 311 kts 79°
2026-04-21 19:23 -34.03253 -70.04950 30102 ft 322 kts 81°
2026-04-21 19:23 -34.02943 -70.02210 29991 ft 335 kts 81°
2026-04-21 19:23 -34.02660 -69.99565 30951 ft 306 kts 81°
2026-04-21 19:24 -34.02386 -69.96984 31015 ft 318 kts 81°
2026-04-21 19:24 -34.02098 -69.94306 31088 ft 325 kts 80°
2026-04-21 19:24 -34.01806 -69.91594 31293 ft 327 kts 81°
2026-04-21 19:24 -34.01511 -69.88866 31518 ft 329 kts 79°
2026-04-21 19:25 -34.01213 -69.86120 31718 ft 330 kts 80°
2026-04-21 19:25 -34.00917 -69.83388 32077 ft 328 kts 81°
2026-04-21 19:25 -34.00620 -69.80657 32329 ft 328 kts 81°
2026-04-21 19:25 -34.00319 -69.77919 32499 ft 330 kts 80°
2026-04-21 19:26 -34.00014 -69.75171 32763 ft 332 kts 80°
2026-04-21 19:26 -33.99707 -69.72407 32962 ft 333 kts 80°
2026-04-21 19:26 -33.99400 -69.69636 33150 ft 335 kts 80°
2026-04-21 19:26 -33.99090 -69.66852 33367 ft 336 kts 80°
2026-04-21 19:27 -33.98778 -69.64053 33580 ft 338 kts 80°
2026-04-21 19:27 -33.98464 -69.61243 33802 ft 339 kts 80°
2026-04-21 19:27 -33.98149 -69.58419 34017 ft 341 kts 80°
2026-04-21 19:27 -33.97834 -69.55579 34193 ft 343 kts 80°
2026-04-21 19:28 -33.97516 -69.52725 34370 ft 343 kts 79°
2026-04-21 19:28 -33.97193 -69.49847 34420 ft 351 kts 79°
2026-04-21 19:28 -33.96856 -69.46887 34336 ft 364 kts 79°
2026-04-21 19:28 -33.96499 -69.43775 33941 ft 387 kts 80°
2026-04-21 19:29 -33.96120 -69.40454 33440 ft 413 kts 80°
2026-04-21 19:29 -33.95724 -69.36935 32901 ft 432 kts 81°
2026-04-21 19:29 -33.95322 -69.33332 32387 ft 434 kts 81°
2026-04-21 19:29 -33.94922 -69.29733 32342 ft 434 kts 81°
2026-04-21 19:30 -33.94106 -69.22530 32320 ft 435 kts 81°
2026-04-21 19:30 -33.93274 -69.15307 32325 ft 436 kts 79°
2026-04-21 19:31 -33.92440 -69.08118 32389 ft 433 kts 79°
2026-04-21 19:31 -33.91611 -69.00981 32386 ft 429 kts 79°
2026-04-21 19:32 -33.90684 -68.93893 32381 ft 425 kts 69°
2026-04-21 19:32 -33.89458 -68.90729 32379 ft 412 kts 48°
2026-04-21 19:32 -33.87528 -68.88270 32327 ft 400 kts 28°
2026-04-21 19:33 -33.85974 -68.87120 32323 ft 391 kts 16°
2026-04-21 19:33 -33.82560 -68.86066 32332 ft 372 kts 355°
2026-04-21 19:33 -33.77436 -68.85610 32364 ft 368 kts 354°
2026-04-21 19:34 -33.72334 -68.85149 32199 ft 365 kts 355°
2026-04-21 19:34 -33.69805 -68.84915 31717 ft 364 kts 355°
2026-04-21 19:34 -33.67276 -68.84681 31249 ft 362 kts 355°
2026-04-21 19:35 -33.64767 -68.84450 30802 ft 361 kts 355°
2026-04-21 19:35 -33.59796 -68.83999 29327 ft 358 kts 355°
2026-04-21 19:35 -33.57320 -68.83778 28568 ft 356 kts 355°
2026-04-21 19:36 -33.54865 -68.83555 27865 ft 352 kts 355°
2026-04-21 19:36 -33.52435 -68.83336 27187 ft 348 kts 355°
2026-04-21 19:36 -33.50017 -68.83121 25562 ft 357 kts 355°
2026-04-21 19:36 -33.47441 -68.82930 23942 ft 375 kts 355°
2026-04-21 19:37 -33.44907 -68.82742 23174 ft 357 kts 354°
2026-04-21 19:37 -33.42452 -68.82565 21704 ft 354 kts 354°
2026-04-21 19:37 -33.39976 -68.82431 19832 ft 365 kts 354°
2026-04-21 19:37 -33.37415 -68.82340 17973 ft 371 kts 354°
2026-04-21 19:38 -33.34821 -68.82082 16049 ft 376 kts
2026-04-21 19:38 -33.32249 -68.81503 14260 ft 376 kts 10°
2026-04-21 19:38 -33.30548 -68.80935 13039 ft 374 kts 15°
2026-04-21 19:38 -33.27283 -68.79908 10705 ft 360 kts
2026-04-21 19:39 -33.24839 -68.79807 9683 ft 341 kts 356°
2026-04-21 19:39 -33.22566 -68.79962 9383 ft 312 kts 355°
2026-04-21 19:39 -33.20490 -68.80079 9230 ft 285 kts 357°
2026-04-21 19:39 -33.18587 -68.80099 9084 ft 263 kts 359°
2026-04-21 19:40 -33.16785 -68.80040 8637 ft 256 kts
2026-04-21 19:40 -33.15012 -68.79923 8077 ft 255 kts
2026-04-21 19:40 -33.13258 -68.79763 7586 ft 251 kts
2026-04-21 19:40 -33.11567 -68.79708 7446 ft 233 kts
2026-04-21 19:41 -33.09996 -68.79686 7230 ft 221 kts
2026-04-21 19:41 -33.08480 -68.79666 6964 ft 214 kts
2026-04-21 19:41 -33.07027 -68.79645 6718 ft 203 kts
2026-04-21 19:41 -33.05666 -68.79624 6486 ft 187 kts
2026-04-21 19:42 -33.04421 -68.79606 6242 ft 171 kts
2026-04-21 19:42 -33.03294 -68.79590 6014 ft 154 kts
2026-04-21 19:42 -33.02250 -68.79574 5817 ft 147 kts
2026-04-21 19:42 -33.01241 -68.79558 5628 ft 144 kts
2026-04-21 19:43 -33.00247 -68.79543 5437 ft 142 kts
2026-04-21 19:43 -32.99251 -68.79528 5260 ft 143 kts
2026-04-21 19:43 -32.98263 -68.79513 5073 ft 143 kts
2026-04-21 19:43 -32.97266 -68.79498 4892 ft 143 kts
2026-04-21 19:44 -32.96275 -68.79483 4686 ft 142 kts
2026-04-21 19:44 -32.95290 -68.79468 4507 ft 142 kts
2026-04-21 19:44 -32.94304 -68.79454 4311 ft 142 kts
2026-04-21 19:44 -32.93326 -68.79439 4131 ft 139 kts
2026-04-21 19:45 -32.92357 -68.79425 3946 ft 140 kts
2026-04-21 19:45 -32.91384 -68.79410 3761 ft 140 kts
2026-04-21 19:45 -32.90414 -68.79396 3579 ft 139 kts
2026-04-21 19:45 -32.89444 -68.79381 3395 ft 139 kts
2026-04-21 19:46 -32.88476 -68.79367 3199 ft 141 kts
2026-04-21 19:46 -32.87497 -68.79352 2991 ft 140 kts
2026-04-21 19:46 -32.86531 -68.79338 2796 ft 141 kts
2026-04-21 19:46 -32.85554 -68.79323 2585 ft 140 kts 359°
2026-04-21 19:47 -32.84577 -68.79308 2400 ft 141 kts 358°
2026-04-21 19:47 -32.83605 -68.79315 2317 ft 135 kts 357°
2026-04-21 19:47 -32.82938 -68.79315 2314 ft 55 kts
2026-04-21 19:47 -32.82654 -68.79296 2312 ft 30 kts
2026-04-21 19:48 -32.82551 -68.79357 2311 ft 16 kts 266°
2026-04-21 19:48 -32.82617 -68.79465 2310 ft 17 kts 225°
2026-04-21 19:48 -32.82691 -68.79581 2310 ft 18 kts 242°
2026-04-21 19:48 -32.82776 -68.79688 2314 ft 10 kts 219°
2026-04-21 19:49 -32.82808 -68.79731 2315 ft 10 kts 242°
2026-04-21 19:49 -32.82813 -68.79776 2311 ft 0 kts 270°